| time (UTC) | temp F | wind direction | speed knots | gust knots | rain 1hr in | rain 24hr in | rain mn in | humidity % | barometer mb |
| 20260504201515 | 72 | 158 | 0.9 | 2.6 | 0.00 | 0.00 | 0.00 | 45 | 1010.0 |
| 20260504200515 | 73 | 135 | 6.1 | 10.4 | 0.00 | 0.00 | 0.00 | 43 | 1010.1 |
| 20260504195515 | 73 | 45 | 2.6 | 7.0 | 0.00 | 0.00 | 0.00 | 42 | 1010.4 |
| 20260504194536 | 73 | 135 | 1.7 | 4.3 | 0.00 | 0.00 | 0.00 | 41 | 1010.4 |
| 20260504193515 | 72 | 135 | 3.5 | 5.2 | 0.00 | 0.00 | 0.00 | 42 | 1010.6 |
| 20260504192515 | 72 | 135 | 6.1 | 13.0 | 0.00 | 0.00 | 0.00 | 42 | 1010.7 |
| 20260504191517 | 71 | 180 | 3.5 | 6.1 | 0.00 | 0.00 | 0.00 | 44 | 1010.9 |
| 20260504190517 | 71 | 135 | 4.3 | 7.0 | 0.00 | 0.00 | 0.00 | 42 | 1011.1 |
| 20260504185517 | 71 | 135 | 2.6 | 6.1 | 0.00 | 0.00 | 0.00 | 44 | 1011.2 |
| 20260504184517 | 71 | 135 | 6.1 | 9.6 | 0.00 | 0.00 | 0.00 | 43 | 1011.3 |
| 20260504183537 | 71 | 135 | 7.8 | 9.6 | 0.00 | 0.00 | 0.00 | 43 | 1011.5 |
| 20260504182517 | 71 | 180 | 3.5 | 7.8 | 0.00 | 0.00 | 0.00 | 42 | 1011.6 |
| 20260504181537 | 71 | 158 | 1.7 | 4.3 | 0.00 | 0.00 | 0.00 | 43 | 1011.7 |
| 20260504180517 | 70 | 158 | 6.1 | 10.4 | 0.00 | 0.00 | 0.00 | 42 | 1011.8 |
| 20260504175517 | 70 | 158 | 3.5 | 14.8 | 0.00 | 0.00 | 0.00 | 41 | 1011.9 |
| 20260504174557 | 71 | 135 | 5.2 | 8.7 | 0.00 | 0.00 | 0.00 | 44 | 1012.1 |
| 20260504173517 | 70 | 158 | 2.6 | 7.8 | 0.00 | 0.00 | 0.00 | 44 | 1012.2 |
| 20260504172516 | 70 | 158 | 5.2 | 7.0 | 0.00 | 0.00 | 0.00 | 43 | 1012.3 |
| 20260504171517 | 69 | 158 | 4.3 | 7.0 | 0.00 | 0.00 | 0.00 | 45 | 1012.4 |
| 20260504170516 | 69 | 158 | 2.6 | 5.2 | 0.00 | 0.00 | 0.00 | 44 | 1012.6 |
| 20260504150517 | 66 | 158 | 5.2 | 7.8 | 0.00 | 0.00 | 0.00 | 53 | 1013.7 |
| 20260504140516 | 63 | 248 | 3.5 | 7.8 | 0.00 | 0.00 | 0.00 | 51 | 1014.0 |
| 20260504130516 | 61 | 203 | 0.9 | 1.7 | 0.00 | 0.00 | 0.00 | 55 | 1014.1 |
| 20260504110516 | 56 | 225 | 0.9 | 0.9 | 0.00 | 0.00 | 0.00 | 64 | 1014.7 |
| 20260504100516 | 56 | 203 | 2.6 | 4.3 | 0.00 | 0.00 | 0.00 | 64 | 1014.7 |
| 20260504081515 | 55 | 0.0 | 0.0 | 0.00 | 0.00 | 0.00 | 67 | 1015.0 | |
| 20260504080516 | 55 | 0.0 | 0.0 | 0.00 | 0.00 | 0.00 | 66 | 1015.0 | |
| 20260504050515 | 52 | 0.0 | 1.7 | 0.00 | 0.00 | 0.00 | 62 | 1015.2 | |
| 20260504045515 | 52 | 0.0 | 0.0 | 0.00 | 0.00 | 0.00 | 62 | 1015.2 | |
| 20260504044518 | 52 | 0.0 | 1.7 | 0.00 | 0.00 | 0.00 | 61 | 1015.3 | |
| 20260504043515 | 52 | 203 | 0.9 | 1.7 | 0.00 | 0.00 | 0.00 | 60 | 1015.2 |
| 20260504042515 | 51 | 225 | 0.9 | 2.6 | 0.00 | 0.00 | 0.00 | 62 | 1015.3 |
| 20260504041515 | 50 | 0.0 | 1.7 | 0.00 | 0.00 | 0.00 | 65 | 1015.1 | |
| 20260504040515 | 50 | 0.0 | 0.0 | 0.00 | 0.00 | 0.00 | 70 | 1015.2 | |
| 20260504035516 | 50 | 0.0 | 0.0 | 0.00 | 0.00 | 0.00 | 69 | 1015.2 | |
| 20260504034516 | 50 | 0.0 | 0.0 | 0.00 | 0.00 | 0.00 | 69 | 1015.0 | |
| 20260504033516 | 50 | 0.0 | 1.7 | 0.00 | 0.00 | 0.00 | 67 | 1015.0 | |
| 20260504032519 | 50 | 0.0 | 0.9 | 0.00 | 0.00 | 0.00 | 68 | 1014.8 | |
| 20260504031516 | 50 | 0.0 | 0.0 | 0.00 | 0.00 | 0.00 | 67 | 1014.7 | |
| 20260504030536 | 50 | 0.0 | 0.0 | 0.00 | 0.00 | 0.00 | 68 | 1014.7 | |
| 20260504025516 | 49 | 0.0 | 0.9 | 0.00 | 0.00 | 0.00 | 69 | 1014.7 | |
| 20260504024516 | 49 | 0.0 | 0.0 | 0.00 | 0.00 | 0.00 | 70 | 1014.7 | |
| 20260504023516 | 49 | 0.0 | 0.9 | 0.00 | 0.00 | 0.00 | 71 | 1014.6 | |
| 20260504022516 | 50 | 0.0 | 0.0 | 0.00 | 0.00 | 0.00 | 69 | 1014.7 | |
| 20260504021516 | 49 | 0.0 | 0.9 | 0.00 | 0.00 | 0.00 | 67 | 1014.7 | |
| 20260504020516 | 49 | 0.0 | 0.0 | 0.00 | 0.00 | 0.00 | 68 | 1014.6 | |
| 20260504015516 | 50 | 0.0 | 0.9 | 0.00 | 0.00 | 0.00 | 64 | 1014.6 | |
| 20260504014516 | 51 | 0.0 | 0.9 | 0.00 | 0.00 | 0.00 | 63 | 1014.5 | |
| 20260504013516 | 51 | 0.0 | 0.9 | 0.00 | 0.00 | 0.00 | 61 | 1014.5 | |
| 20260504012516 | 51 | 0.0 | 0.0 | 0.00 | 0.00 | 0.00 | 62 | 1014.4 | |
| 20260504011517 | 52 | 0.0 | 0.0 | 0.00 | 0.00 | 0.00 | 59 | 1014.3 | |
| 20260504010516 | 53 | 0.0 | 0.0 | 0.00 | 0.00 | 0.00 | 58 | 1014.3 | |
| 20260504005516 | 54 | 0.0 | 0.0 | 0.00 | 0.00 | 0.00 | 56 | 1014.3 | |
| 20260504004516 | 54 | 0.0 | 0.0 | 0.00 | 0.00 | 0.00 | 54 | 1014.1 | |
| 20260504003536 | 55 | 0.0 | 0.0 | 0.00 | 0.00 | 0.00 | 52 | 1014.0 | |
| 20260504002516 | 56 | 0.0 | 0.0 | 0.00 | 0.00 | 0.00 | 51 | 1014.0 | |
| 20260504001516 | 58 | 0.0 | 0.0 | 0.00 | 0.00 | 0.00 | 47 | 1013.9 | |
| 20260504000516 | 59 | 0.0 | 0.0 | 0.00 | 0.00 | 0.00 | 43 | 1013.8 | |
| 20260503235516 | 61 | 0.0 | 0.0 | 0.00 | 0.00 | 0.00 | 40 | 1013.7 | |
| 20260503234516 | 62 | 0.0 | 0.0 | 0.00 | 0.00 | 0.00 | 38 | 1013.5 | |
| 20260503233516 | 63 | 248 | 0.9 | 2.6 | 0.00 | 0.00 | 0.00 | 36 | 1013.4 |
| 20260503232516 | 63 | 270 | 5.2 | 7.8 | 0.00 | 0.00 | 0.00 | 35 | 1013.4 |
| 20260503231516 | 63 | 270 | 4.3 | 8.7 | 0.00 | 0.00 | 0.00 | 36 | 1013.4 |
| 20260503230539 | 63 | 225 | 2.6 | 3.5 | 0.00 | 0.00 | 0.00 | 35 | 1013.4 |
| 20260503225516 | 63 | 270 | 5.2 | 7.0 | 0.00 | 0.00 | 0.00 | 35 | 1013.4 |
| 20260503224536 | 63 | 270 | 7.0 | 8.7 | 0.00 | 0.00 | 0.00 | 36 | 1013.5 |
| 20260503223516 | 63 | 270 | 7.8 | 11.3 | 0.00 | 0.00 | 0.00 | 36 | 1013.4 |
| 20260503222536 | 63 | 293 | 5.2 | 7.8 | 0.00 | 0.00 | 0.00 | 38 | 1013.4 |
| 20260503221516 | 63 | 293 | 7.8 | 8.7 | 0.00 | 0.00 | 0.00 | 34 | 1013.4 |
| 20260503220516 | 63 | 248 | 8.7 | 11.3 | 0.00 | 0.00 | 0.00 | 36 | 1013.5 |
| 20260503215516 | 63 | 293 | 7.8 | 11.3 | 0.00 | 0.00 | 0.00 | 33 | 1013.5 |
| 20260503214515 | 63 | 270 | 8.7 | 13.9 | 0.00 | 0.00 | 0.00 | 35 | 1013.5 |
| 20260503213515 | 62 | 248 | 8.7 | 16.5 | 0.00 | 0.00 | 0.00 | 37 | 1013.5 |
| 20260503212516 | 62 | 293 | 9.6 | 16.5 | 0.00 | 0.00 | 0.00 | 39 | 1013.5 |
| 20260503211516 | 62 | 270 | 5.2 | 7.0 | 0.00 | 0.00 | 0.00 | 36 | 1013.3 |
| 20260503210515 | 62 | 270 | 5.2 | 8.7 | 0.00 | 0.00 | 0.00 | 38 | 1013.4 |
| 20260503205556 | 62 | 248 | 8.7 | 10.4 | 0.00 | 0.00 | 0.00 | 38 | 1013.5 |
| 20260503204516 | 62 | 270 | 3.5 | 6.1 | 0.00 | 0.00 | 0.00 | 39 | 1013.5 |
| 20260503203515 | 61 | 248 | 5.2 | 10.4 | 0.00 | 0.00 | 0.00 | 40 | 1013.6 |
| 20260503202515 | 60 | 293 | 13.0 | 14.8 | 0.00 | 0.00 | 0.00 | 41 | 1013.7 |